Regional Weather Roundup
Issued by NWS

Home | Current Version | Previous Version | Graphics & Text | Print | Product List | Glossary On
Versions: 1 2 3 4 5 6 7 8 9 10 11 12 13 14 15 16 17 18 19 20 21 22 23 24 25 26 27 28 29 30 31 32 33 34 35 36 37 38 39 40 41 42 43 44 45 46 47 48 49 50
000
ASUS45 KBOU 180107
RWRCO

WEATHER ROUNDUP FOR COLORADO
NATIONAL WEATHER SERVICE DENVER/BOULDER CO
700 PM MDT FRI APR 17 2015

NOTE: "FAIR" INDICATES FEW OR NO CLOUDS BELOW 12000 FEET WITH NO
SIGNIFICANT WEATHER AND/OR OBSTRUCTIONS TO VISIBILITY.

COZ001>005-013-030-031-180200-
...NORTHWEST COLORADO...

CITY           SKY/WX    TMP DP  RH WIND       PRES   REMARKS
CRAIG          CLOUDY    44  36  73 W10       29.98R
HAYDEN         CLOUDY    45  27  49 CALM      29.97R
MEEKER         CLOUDY    37  34  89 MISG      30.00R
MOUNT WERNER   NOT AVBL
STEAMBOAT SPGS CLOUDY    42  23  47 E5        29.97R
WALDEN         CLOUDY    34  28  80 CALM      30.02R
$$

COZ006>008-011-180200-
...WEST CENTRAL VALLEYS...

CITY           SKY/WX    TMP DP  RH WIND       PRES   REMARKS
GRAND JUNCTION LGT RAIN  36  35  96 CALM      30.02S
MONTROSE       LGT RAIN  38  34  85 E7        30.03R
EAGLE          PTCLDY    37  34  87 W6        30.01R
RIFLE          LGT RAIN  36  33  89 NW3       30.03R
DELTA          CLOUDY    42  37  85 E8        30.02S
NUCLA          DRIZZLE   37  34  87 NW3       30.05F
$$

COZ017>023-064>068-180200-
...SOUTHWEST COLORADO...

CITY           SKY/WX    TMP DP  RH WIND       PRES   REMARKS
DURANGO        MOCLDY    40  20  44 SW13      30.01S
CORTEZ         CLOUDY    41  27  57 S7        30.03F
PAGOSA SPRINGS CLOUDY    36  20  52 CALM      30.03S
TELLURIDE      LGT SNOW  28  26  91 SW5       30.03R WCI  23
WOLF CREEK PAS CLOUDY    14  10  85 SW18      30.04S WCI  -3
$$

COZ009-010-012-014-032>034-037-058>063-180200-
...CENTRAL COLORADO...

CITY           SKY/WX    TMP DP  RH WIND       PRES   REMARKS
ASPEN          CLOUDY    31  26  82 N5        29.99R WCI  26
BUENA VISTA    MOCLDY    31  19  58 NW6       30.02S WCI  26
COPPER MTN     PTCLDY    23   3  42 SE13G21   30.02R WCI  11
BERTHOUD PASS  FAIR      14   7  73 MISG      30.06R
COTTONWOOD PAS MOCLDY    30  19  64 CALM      30.02S
GUNNISON       CLOUDY    30  25  80 CALM      30.05R
KREMMLING      PTCLDY    41  12  30 S8        29.99R
LEADVILLE      MOCLDY    19  12  74 S5        30.01S WCI  12
MONARCH PASS     N/A     16  14  93 MISG      30.12S
SALIDA         MOCLDY    37  25  61 NW8       30.09R
SUNLIGHT       CLOUDY    27  23  86 CALM      30.05R
WILKERSON PASS PTCLDY    23  14  68 W3        30.02F
$$

COZ069>075-180200-
...SAN LUIS VALLEY/SANGRE DE CRISTO MOUNTAINS...

CITY           SKY/WX    TMP DP  RH WIND       PRES   REMARKS
ALAMOSA        MOCLDY    38  11  32 SW10      29.98S
LA VETA PASS   MOCLDY    23  12  63 S10G21    30.01R WCI  12
SAGUACHE       CLOUDY    32  25  74 W13       30.01S WCI  22
$$

COZ035-036-038>040-180200-
...NORTHERN COLORADO FRONT RANGE...

CITY           SKY/WX    TMP DP  RH WIND       PRES   REMARKS
DENVER INTL AP MOCLDY    45  39  79 N15       29.97R
DMNS CITY PARK   N/A     46  37  71 N10G16    29.99R
AURORA         MOCLDY    45  38  77 N10       29.98R
FRONT RANGE AP MOCLDY    48  41  76 NW14      29.97S
ERIE MUNI ARPT PTCLDY    45  38  77 N14       29.99S
BOULDER MUN AP PTCLDY    45  36  70 N7        29.99R
CENTENNIAL     MOCLDY    45  36  70 N14       29.97R
BROOMFIELD     MOCLDY    45  37  76 N10       29.99S
FORT COLLINS   CLOUDY    45  36  70 N13       30.00F
LONGMONT       CLOUDY    48  37  64 N8        30.00S
$$

COZ041-046-047-076>085-087-088-180200-
...PIKES PEAK/PALMER DIVIDE AND SOUTHERN FOOTHILLS...

CITY           SKY/WX    TMP DP  RH WIND       PRES   REMARKS
COLO. SPRINGS  MOCLDY    47  19  33 S10       29.98R
A. F. ACADEMY  MOCLDY    46  15  29 S6        29.96S
ELLICOTT       RAIN     N/A N/A N/A VRB7      30.01R
FALCON         CLOUDY    41  26  53 E10       30.00R
FORT CARSON    MOCLDY    47  24  39 S15       29.96R
LIMON          CLOUDY    45  34  65 N12       29.95S
MONUMENT HILL  CLOUDY    37  25  60 S8        29.96F
TRINIDAD       MOCLDY    46  28  49 NW9       29.95R
$$

COZ042>045-048>051-090-091-180200-
...NORTHEAST COLORADO...

CITY           SKY/WX    TMP DP  RH WIND       PRES   REMARKS
GREELEY ARPT   CLOUDY    45  36  70 N9        29.99R
AKRON          CLOUDY    52  45  77 S12       29.95R
BURLINGTON     MOCLDY    56  44  64 E16       29.91F
WRAY           MOCLDY    63  45  52 SE13      29.93S
STERLING       CLOUDY    55  50  82 NE8       29.94S
HOLYOKE        MOCLDY    59  52  77 E10       29.95S
FORT MORGAN    TSTM      42  37  82 N18G36    29.98R
$$

COZ086-089-092>099-180200-
...SOUTHEAST COLORADO...

CITY           SKY/WX    TMP DP  RH WIND       PRES   REMARKS
PUEBLO         CLOUDY    49  29  46 NE15      29.95R
LA JUNTA       CLOUDY    52  34  50 W23       29.93R
LAMAR          PTCLDY    60  22  23 S13       29.85S
SPRINGFIELD      N/A     56  17  21 S13       29.90S
$$



USA.gov is the U.S. government's official web portal to all federal, state and local government web resources and services.